• In Hungary
  • List of Countries
  • For 7 days
  • Water Temperature
  • Satellite Maps
  • Weather Map
  • News
  • Weather Widgets
  • user-avatar
    Login

    Hourly Weather Roztropice

    Today, 19 July, Thursday

    Time Temperature Precipitation Wind Pressure Humidity
    00:00 +18°C° 0.2 mm 4 mps 731 mmHg 95%
    01:00 +18°C° 0.2 mm 3 mps 731 mmHg 95%
    02:00 +18°C° 0.2 mm 3 mps 731 mmHg 96%
    03:00 +18°C° 0.2 mm 3 mps 731 mmHg 96%
    04:00 +18°C° 0.2 mm 3 mps 731 mmHg 96%
    05:00 +18°C° 0.3 mm 3 mps 731 mmHg 96%
    06:00 +18°C° 0.3 mm 3 mps 731 mmHg 96%
    07:00 +18°C° 0.3 mm 3 mps 731 mmHg 95%
    08:00 +18°C° 0.5 mm 3 mps 732 mmHg 95%
    09:00 +18°C° 0.5 mm 3 mps 732 mmHg 94%
    10:00 +18°C° 0.5 mm 3 mps 732 mmHg 94%
    11:00 +19°C° 0.4 mm 3 mps 732 mmHg 93%
    12:00 +19°C° 0.4 mm 3 mps 732 mmHg 92%
    13:00 +19°C° 0.4 mm 3 mps 732 mmHg 91%
    14:00 +20°C° 0.2 mm 3 mps 732 mmHg 90%
    15:00 +20°C° 0.2 mm 3 mps 732 mmHg 88%
    16:00 +20°C° 0.2 mm 3 mps 732 mmHg 87%
    17:00 +20°C° 0.1 mm 3 mps 732 mmHg 89%
    18:00 +19°C° 0.1 mm 3 mps 732 mmHg 91%
    19:00 +19°C° 0.1 mm 3 mps 732 mmHg 93%
    20:00 +19°C° 0.3 mm 3 mps 732 mmHg 94%
    21:00 +18°C° 0.3 mm 3 mps 732 mmHg 95%
    22:00 +18°C° 0.3 mm 2 mps 732 mmHg 96%
    23:00 +18°C° 0.5 mm 2 mps 732 mmHg 96%

    Tomorrow, 20 July, Friday

    Time Temperature Precipitation Wind Pressure Humidity
    00:00 +18°C° 0.5 mm 2 mps 732 mmHg 96%
    01:00 +18°C° 0.5 mm 2 mps 732 mmHg 96%
    02:00 +18°C° 0.2 mm 2 mps 732 mmHg 97%
    03:00 +17°C° 0.2 mm 2 mps 732 mmHg 97%
    04:00 +17°C° 0.2 mm 2 mps 732 mmHg 97%
    05:00 +17°C° 0.1 mm 2 mps 732 mmHg 96%
    06:00 +18°C° 0.1 mm 3 mps 733 mmHg 95%
    07:00 +18°C° 0.1 mm 3 mps 733 mmHg 94%
    08:00 +19°C° 0.1 mm 3 mps 733 mmHg 89%
    09:00 +19°C° 0.1 mm 3 mps 733 mmHg 85%
    10:00 +20°C° 0.1 mm 3 mps 733 mmHg 80%
    11:00 +22°C° 0.1 mm 3 mps 733 mmHg 75%
    12:00 +24°C° 0.1 mm 3 mps 733 mmHg 70%
    13:00 +25°C° 0.1 mm 3 mps 733 mmHg 64%
    14:00 +25°C° 0.1 mm 3 mps 733 mmHg 63%
    15:00 +25°C° 0.1 mm 3 mps 732 mmHg 62%
    16:00 +26°C° 0.1 mm 3 mps 732 mmHg 60%
    17:00 +24°C° 0 mm 3 mps 732 mmHg 65%
    18:00 +23°C° 0 mm 2 mps 732 mmHg 71%
    19:00 +21°C° 0 mm 2 mps 732 mmHg 76%
    20:00 +21°C° 0 mm 1 mps 732 mmHg 78%
    21:00 +19°C° 0 mm 1 mps 732 mmHg 81%
    22:00 +18°C° 0 mm 1 mps 732 mmHg 83%
    23:00 +18°C° 0 mm 1 mps 732 mmHg 84%

    Day after tomorrow, 21 July, Saturday

    Time Temperature Precipitation Wind Pressure Humidity
    00:00 +16°C° 0 mm 1 mps 732 mmHg 85%
    01:00 +16°C° 0 mm 1 mps 732 mmHg 86%
    02:00 +15°C° 0 mm 1 mps 732 mmHg 87%
    03:00 +15°C° 0 mm 1 mps 732 mmHg 87%
    04:00 +15°C° 0 mm 1 mps 732 mmHg 88%
    05:00 +16°C° 0 mm 1 mps 732 mmHg 83%
    06:00 +17°C° 0 mm 0 mps 732 mmHg 78%
    07:00 +19°C° 0 mm 0 mps 732 mmHg 72%
    08:00 +21°C° 0 mm 0 mps 732 mmHg 64%
    09:00 +23°C° 0 mm 0 mps 732 mmHg 56%
    10:00 +26°C° 0 mm 1 mps 732 mmHg 49%
    11:00 +27°C° 0 mm 1 mps 732 mmHg 46%
    12:00 +28°C° 0 mm 1 mps 732 mmHg 43%
    13:00 +28°C° 0 mm 1 mps 732 mmHg 40%
    14:00 +28°C° 0 mm 1 mps 731 mmHg 41%
    15:00 +28°C° 0 mm 1 mps 731 mmHg 42%
    16:00 +28°C° 0 mm 2 mps 731 mmHg 43%
    17:00 +26°C° 0 mm 1 mps 731 mmHg 49%
    18:00 +25°C° 0 mm 1 mps 731 mmHg 55%
    19:00 +23°C° 0 mm 1 mps 730 mmHg 62%
    20:00 +22°C° 0 mm 1 mps 730 mmHg 64%
    21:00 +21°C° 0 mm 1 mps 730 mmHg 66%
    22:00 +20°C° 0 mm 1 mps 730 mmHg 69%
    23:00 +19°C° 0 mm 1 mps 730 mmHg 71%

    22 July, Sunday

    Time Temperature Precipitation Wind Pressure Humidity
    00:00 +19°C° 0 mm 1 mps 730 mmHg 73%
    01:00 +18°C° 0 mm 1 mps 730 mmHg 75%
    02:00 +18°C° 0 mm 1 mps 730 mmHg 76%
    03:00 +18°C° 0 mm 1 mps 730 mmHg 78%
    04:00 +16°C° 0 mm 1 mps 730 mmHg 80%
    05:00 +19°C° 0 mm 1 mps 730 mmHg 75%
    06:00 +19°C° 0 mm 0 mps 730 mmHg 71%
    07:00 +20°C° 0 mm 0 mps 730 mmHg 66%
    08:00 +24°C° 0 mm 1 mps 730 mmHg 61%
    09:00 +25°C° 0 mm 2 mps 730 mmHg 56%
    10:00 +26°C° 0 mm 2 mps 730 mmHg 52%
    11:00 +27°C° 0 mm 2 mps 730 mmHg 50%
    12:00 +27°C° 0 mm 3 mps 729 mmHg 48%
    13:00 +28°C° 0 mm 3 mps 729 mmHg 47%
    14:00 +28°C° 0.1 mm 3 mps 729 mmHg 49%
    15:00 +27°C° 0.1 mm 3 mps 729 mmHg 51%
    16:00 +27°C° 0.1 mm 3 mps 729 mmHg 53%
    17:00 +26°C° 0.1 mm 3 mps 729 mmHg 59%
    18:00 +24°C° 0.1 mm 2 mps 729 mmHg 65%
    19:00 +23°C° 0.1 mm 2 mps 729 mmHg 70%
    20:00 +21°C° 0 mm 2 mps 729 mmHg 72%
    21:00 +20°C° 0 mm 2 mps 729 mmHg 74%
    22:00 +19°C° 0 mm 2 mps 730 mmHg 76%
    23:00 +18°C° 0 mm 2 mps 730 mmHg 78%

    23 July, Monday

    Time Temperature Precipitation Wind Pressure Humidity
    00:00 +18°C° 0 mm 2 mps 730 mmHg 81%
    01:00 +17°C° 0 mm 2 mps 730 mmHg 83%
    02:00 +17°C° 0 mm 2 mps 730 mmHg 84%
    03:00 +17°C° 0 mm 2 mps 730 mmHg 86%
    04:00 +17°C° 0 mm 2 mps 730 mmHg 87%
    05:00 +18°C° 0 mm 2 mps 731 mmHg 85%
    06:00 +18°C° 0 mm 2 mps 731 mmHg 83%
    07:00 +19°C° 0 mm 2 mps 731 mmHg 81%
    08:00 +20°C° 0.2 mm 3 mps 731 mmHg 77%
    09:00 +21°C° 0.2 mm 3 mps 731 mmHg 73%
    10:00 +22°C° 0.2 mm 3 mps 732 mmHg 69%
    11:00 +24°C° 0.2 mm 3 mps 732 mmHg 66%
    12:00 +23°C° 0.2 mm 4 mps 732 mmHg 64%
    13:00 +25°C° 0.2 mm 4 mps 732 mmHg 61%
    14:00 +25°C° 0.4 mm 4 mps 732 mmHg 63%
    15:00 +25°C° 0.4 mm 3 mps 732 mmHg 65%
    16:00 +25°C° 0.4 mm 3 mps 732 mmHg 66%
    17:00 +24°C° 0.1 mm 3 mps 732 mmHg 69%
    18:00 +23°C° 0.1 mm 2 mps 732 mmHg 72%
    19:00 +21°C° 0.1 mm 2 mps 732 mmHg 75%
    20:00 +20°C° 0 mm 2 mps 732 mmHg 78%
    21:00 +19°C° 0 mm 2 mps 733 mmHg 80%
    22:00 +18°C° 0 mm 2 mps 733 mmHg 83%
    23:00 +18°C° 0 mm 2 mps 733 mmHg 85%

    24 July, Tuesday

    Time Temperature Precipitation Wind Pressure Humidity
    00:00 +17°C° 0 mm 2 mps 733 mmHg 87%
    01:00 +18°C° 0 mm 1 mps 733 mmHg 89%
    02:00 +16°C° 0 mm 1 mps 733 mmHg 90%
    03:00 +16°C° 0 mm 1 mps 733 mmHg 91%
    04:00 +16°C° 0 mm 1 mps 733 mmHg 92%
    05:00 +18°C° 0 mm 1 mps 733 mmHg 89%
    06:00 +19°C° 0 mm 1 mps 734 mmHg 85%
    07:00 +20°C° 0 mm 2 mps 734 mmHg 81%
    08:00 +21°C° 0 mm 2 mps 734 mmHg 74%
    09:00 +24°C° 0 mm 2 mps 734 mmHg 67%
    10:00 +25°C° 0 mm 3 mps 734 mmHg 60%
    11:00 +26°C° 0 mm 3 mps 734 mmHg 57%
    12:00 +27°C° 0 mm 3 mps 734 mmHg 55%
    13:00 +27°C° 0 mm 3 mps 734 mmHg 52%
    14:00 +27°C° 0 mm 3 mps 734 mmHg 52%
    15:00 +27°C° 0 mm 3 mps 733 mmHg 52%
    16:00 +27°C° 0 mm 3 mps 733 mmHg 53%
    17:00 +26°C° 0 mm 2 mps 733 mmHg 59%
    18:00 +25°C° 0 mm 2 mps 733 mmHg 64%
    19:00 +23°C° 0 mm 2 mps 733 mmHg 70%
    20:00 +21°C° 0 mm 2 mps 734 mmHg 74%
    21:00 +21°C° 0 mm 1 mps 734 mmHg 77%
    22:00 +20°C° 0 mm 1 mps 734 mmHg 80%
    23:00 +19°C° 0 mm 1 mps 734 mmHg 82%
    Show more